• In Czech Republic
  • List of Countries
  • For 7 days
  • Water Temperature
  • Satellite Maps
  • Weather Map
  • Weather Widgets
  • user-avatar
    Login

    Hourly Weather Praia

    Today, 23 September, Sunday

    Time Temperature Precipitation Wind Pressure Humidity
    00:00 +34°C° 0 mm 4 mps 683 mmHg 19%
    01:00 +33°C° 0 mm 5 mps 683 mmHg 20%
    02:00 +32°C° 0 mm 4 mps 683 mmHg 22%
    03:00 +32°C° 0 mm 4 mps 683 mmHg 23%
    04:00 +30°C° 0 mm 4 mps 683 mmHg 23%
    05:00 +30°C° 0 mm 4 mps 683 mmHg 24%
    06:00 +30°C° 0 mm 5 mps 683 mmHg 24%
    07:00 +32°C° 0 mm 6 mps 683 mmHg 24%
    08:00 +32°C° 0 mm 6 mps 684 mmHg 25%
    09:00 +34°C° 0 mm 7 mps 684 mmHg 22%
    10:00 +37°C° 0 mm 8 mps 684 mmHg 19%
    11:00 +38°C° 0 mm 8 mps 685 mmHg 16%
    12:00 +39°C° 0 mm 8 mps 684 mmHg 14%
    13:00 +40°C° 0 mm 8 mps 684 mmHg 13%
    14:00 +41°C° 0 mm 8 mps 683 mmHg 12%
    15:00 +41°C° 0 mm 8 mps 683 mmHg 12%
    16:00 +41°C° 0 mm 7 mps 683 mmHg 12%
    17:00 +40°C° 0 mm 7 mps 682 mmHg 12%
    18:00 +40°C° 0 mm 6 mps 683 mmHg 13%
    19:00 +39°C° 0 mm 5 mps 683 mmHg 14%
    20:00 +37°C° 0 mm 4 mps 683 mmHg 15%
    21:00 +37°C° 0 mm 4 mps 683 mmHg 18%
    22:00 +36°C° 0 mm 4 mps 684 mmHg 21%
    23:00 +35°C° 0 mm 3 mps 684 mmHg 24%

    Tomorrow, 24 September, Monday

    Time Temperature Precipitation Wind Pressure Humidity
    00:00 +34°C° 0 mm 3 mps 684 mmHg 27%
    01:00 +34°C° 0 mm 3 mps 683 mmHg 30%
    02:00 +32°C° 0 mm 2 mps 683 mmHg 33%
    03:00 +31°C° 0 mm 2 mps 682 mmHg 35%
    04:00 +31°C° 0 mm 2 mps 682 mmHg 38%
    05:00 +30°C° 0 mm 1 mps 682 mmHg 40%
    06:00 +31°C° 0 mm 1 mps 683 mmHg 39%
    07:00 +31°C° 0 mm 1 mps 683 mmHg 37%
    08:00 +31°C° 0 mm 2 mps 684 mmHg 36%
    09:00 +34°C° 0 mm 2 mps 684 mmHg 31%
    10:00 +35°C° 0 mm 3 mps 684 mmHg 26%
    11:00 +37°C° 0 mm 4 mps 685 mmHg 22%
    12:00 +39°C° 0 mm 5 mps 684 mmHg 19%
    13:00 +40°C° 0 mm 6 mps 684 mmHg 16%
    14:00 +41°C° 0 mm 6 mps 683 mmHg 14%
    15:00 +40°C° 0 mm 7 mps 683 mmHg 13%
    16:00 +40°C° 0 mm 7 mps 682 mmHg 13%
    17:00 +40°C° 0 mm 7 mps 682 mmHg 13%
    18:00 +39°C° 0 mm 7 mps 682 mmHg 13%
    19:00 +39°C° 0 mm 6 mps 683 mmHg 14%
    20:00 +37°C° 0 mm 5 mps 683 mmHg 14%
    21:00 +36°C° 0 mm 6 mps 683 mmHg 15%
    22:00 +35°C° 0 mm 6 mps 683 mmHg 16%
    23:00 +35°C° 0 mm 6 mps 683 mmHg 16%

    Day after tomorrow, 25 September, Tuesday

    Time Temperature Precipitation Wind Pressure Humidity
    00:00 +34°C° 0 mm 6 mps 683 mmHg 16%
    01:00 +33°C° 0 mm 6 mps 682 mmHg 17%
    02:00 +33°C° 0 mm 6 mps 682 mmHg 17%
    03:00 +32°C° 0 mm 6 mps 682 mmHg 17%
    04:00 +32°C° 0 mm 6 mps 682 mmHg 18%
    05:00 +30°C° 0 mm 6 mps 681 mmHg 19%
    06:00 +32°C° 0 mm 6 mps 682 mmHg 18%
    07:00 +32°C° 0 mm 7 mps 682 mmHg 18%
    08:00 +33°C° 0 mm 7 mps 683 mmHg 18%
    09:00 +34°C° 0 mm 7 mps 683 mmHg 17%
    10:00 +36°C° 0 mm 7 mps 684 mmHg 15%
    11:00 +38°C° 0 mm 8 mps 684 mmHg 14%
    12:00 +39°C° 0 mm 7 mps 683 mmHg 14%
    13:00 +40°C° 0 mm 6 mps 683 mmHg 13%
    14:00 +40°C° 0 mm 6 mps 682 mmHg 13%
    15:00 +40°C° 0 mm 6 mps 682 mmHg 13%
    16:00 +40°C° 0 mm 6 mps 681 mmHg 13%
    17:00 +41°C° 0 mm 6 mps 681 mmHg 13%
    18:00 +40°C° 0 mm 5 mps 681 mmHg 14%
    19:00 +38°C° 0 mm 4 mps 681 mmHg 15%
    20:00 +37°C° 0 mm 4 mps 681 mmHg 16%
    21:00 +37°C° 0 mm 4 mps 682 mmHg 19%
    22:00 +36°C° 0 mm 4 mps 682 mmHg 22%
    23:00 +35°C° 0 mm 5 mps 683 mmHg 24%

    26 September, Wednesday

    Time Temperature Precipitation Wind Pressure Humidity
    00:00 +34°C° 0 mm 5 mps 682 mmHg 28%
    01:00 +33°C° 0 mm 5 mps 682 mmHg 31%
    02:00 +33°C° 0 mm 4 mps 682 mmHg 34%
    03:00 +32°C° 0 mm 4 mps 682 mmHg 39%
    04:00 +30°C° 0 mm 5 mps 682 mmHg 44%
    05:00 +29°C° 0 mm 5 mps 682 mmHg 49%
    06:00 +29°C° 0 mm 4 mps 682 mmHg 50%
    07:00 +29°C° 0 mm 4 mps 682 mmHg 52%
    08:00 +29°C° 0 mm 4 mps 683 mmHg 53%
    09:00 +30°C° 0 mm 4 mps 683 mmHg 48%
    10:00 +33°C° 0 mm 3 mps 684 mmHg 42%
    11:00 +34°C° 0 mm 3 mps 684 mmHg 36%
    12:00 +35°C° 0 mm 3 mps 683 mmHg 33%
    13:00 +36°C° 0 mm 3 mps 683 mmHg 29%
    14:00 +37°C° 0 mm 3 mps 682 mmHg 26%
    15:00 +36°C° 0.8 mm 4 mps 682 mmHg 32%
    16:00 +34°C° 0.8 mm 6 mps 681 mmHg 38%
    17:00 +32°C° 0.8 mm 8 mps 681 mmHg 44%
    18:00 +30°C° 2.5 mm 7 mps 681 mmHg 46%
    19:00 +29°C° 2.5 mm 7 mps 682 mmHg 48%
    20:00 +28°C° 2.5 mm 6 mps 682 mmHg 50%
    21:00 +28°C° 0 mm 5 mps 683 mmHg 48%
    22:00 +29°C° 0 mm 4 mps 683 mmHg 47%
    23:00 +30°C° 0 mm 3 mps 683 mmHg 45%

    27 September, Thursday

    Time Temperature Precipitation Wind Pressure Humidity
    00:00 +30°C° 0 mm 3 mps 683 mmHg 44%
    01:00 +30°C° 0 mm 3 mps 682 mmHg 43%
    02:00 +30°C° 0 mm 2 mps 682 mmHg 43%
    03:00 +29°C° 0 mm 2 mps 682 mmHg 43%
    04:00 +29°C° 0 mm 3 mps 682 mmHg 43%
    05:00 +29°C° 0 mm 3 mps 682 mmHg 43%
    06:00 +29°C° 0 mm 3 mps 682 mmHg 41%
    07:00 +30°C° 0 mm 4 mps 683 mmHg 40%
    08:00 +30°C° 0 mm 4 mps 683 mmHg 38%
    09:00 +33°C° 0 mm 4 mps 683 mmHg 32%
    10:00 +34°C° 0 mm 5 mps 684 mmHg 25%
    11:00 +36°C° 0 mm 5 mps 684 mmHg 18%
    12:00 +37°C° 0 mm 5 mps 683 mmHg 17%
    13:00 +39°C° 0 mm 5 mps 683 mmHg 16%
    14:00 +38°C° 0 mm 4 mps 682 mmHg 14%
    15:00 +38°C° 0 mm 4 mps 682 mmHg 14%
    16:00 +38°C° 0 mm 4 mps 682 mmHg 14%
    17:00 +40°C° 0 mm 4 mps 682 mmHg 14%
    18:00 +38°C° 0 mm 4 mps 682 mmHg 15%
    19:00 +37°C° 0 mm 4 mps 682 mmHg 16%
    20:00 +36°C° 0 mm 4 mps 682 mmHg 17%
    21:00 +36°C° 0 mm 5 mps 682 mmHg 18%
    22:00 +35°C° 0 mm 5 mps 682 mmHg 19%
    23:00 +34°C° 0 mm 5 mps 683 mmHg 19%

    28 September, Friday

    Time Temperature Precipitation Wind Pressure Humidity
    00:00 +34°C° 0 mm 5 mps 682 mmHg 20%
    01:00 +33°C° 0 mm 5 mps 681 mmHg 21%
    02:00 +32°C° 0 mm 5 mps 681 mmHg 22%
    03:00 +32°C° 0 mm 5 mps 681 mmHg 23%
    04:00 +30°C° 0 mm 5 mps 681 mmHg 24%
    05:00 +30°C° 0 mm 5 mps 681 mmHg 24%
    06:00 +30°C° 0 mm 6 mps 682 mmHg 24%
    07:00 +32°C° 0 mm 7 mps 683 mmHg 24%
    08:00 +32°C° 0 mm 7 mps 683 mmHg 24%
    09:00 +34°C° 0 mm 7 mps 683 mmHg 22%
    10:00 +35°C° 0 mm 7 mps 684 mmHg 20%
    11:00 +38°C° 0 mm 7 mps 684 mmHg 18%
    12:00 +38°C° 0 mm 6 mps 683 mmHg 18%
    13:00 +39°C° 0 mm 6 mps 683 mmHg 17%
    14:00 +39°C° 0 mm 5 mps 682 mmHg 16%
    15:00 +39°C° 0 mm 5 mps 682 mmHg 16%
    16:00 +39°C° 0 mm 5 mps 682 mmHg 16%
    17:00 +39°C° 0 mm 5 mps 681 mmHg 16%
    18:00 +39°C° 0 mm 5 mps 682 mmHg 17%
    19:00 +37°C° 0 mm 5 mps 682 mmHg 19%
    20:00 +36°C° 0 mm 5 mps 682 mmHg 20%
    21:00 +36°C° 0 mm 5 mps 682 mmHg 21%
    22:00 +35°C° 0 mm 6 mps 682 mmHg 22%
    23:00 +35°C° 0 mm 6 mps 682 mmHg 22%
    Show more